[[{"header":{"parameterUnit":"m.s-1","parameterCategory":1,"la1":30.2991,"la2":30.254,"lo1":-89.0895,"lo2":-89.0444,"dy":0.0017,"dx":0.0017,"nx":28,"ny":28,"refTime":"2025-11-07T03:00:00:Z","depth":0,"parameterNumber":2,"parameterNumberName":"U-component_of_WINDS"},"data":[0,0,0,0,0,0,0,0,0,0,0,0,0,0,0,0,0,0,0,0,0,0,0,0,0,0,0,0,0,0,0,0,0,0,0,0,0,0,0,0,0,0,0,0,0,0,0,0,0,0,0,0,0,0,0,0,0,0,0.8419,0.8419,0,0.8453,0.8454,0.8454,0.8379,0.8377,0.8375,0.8372,0.8412,0.8415,0.8419,0,0,0,0,0,0,0,0,0,0,0,0,0,0.8292,0.8295,0.8419,0.8419,0.842,0.8453,0.8454,0.8454,0.838,0.8377,0.8374,0.8371,0.8411,0.8415,0.8419,0,0,0,0,0,0,0,0,0,0,0,0,0,0.8339,0.8296,0.8419,0.8386,0.8384,0.8453,0.8454,0.8454,0.8381,0.8377,0.8373,0.837,0.841,0.8415,0.842,0.8523,0,0,0.8435,0.8437,0,0,0,0,0,0,0,0,0.8337,0.8344,0.8391,0.8389,0.8386,0.8408,0.8424,0.8478,0.8381,0.8382,0.8372,0.8368,0.8414,0.8419,0.8433,0.8525,0.8527,0.8435,0.8438,0.844,0.8442,0,0,0,0,0,0,0,0.8334,0.8342,0.8433,0.8392,0.8389,0.8372,0.8374,0.8434,0.8418,0.8382,0.8376,0.8381,0.8412,0.8429,0.8434,0.8527,0.8435,0.844,0.8443,0.8445,0.8708,0.8712,0,0,0,0,0,0,0.8334,0.834,0.8431,0.8434,0.8352,0.8377,0.838,0.8405,0.8417,0.8416,0.8384,0.8378,0.8422,0.8428,0.8435,0.8559,0.844,0.8445,0.8448,0.8704,0.8709,0.8714,0,0,0,0,0,0,0.8332,0.8343,0.843,0.8385,0.8395,0.8383,0.8412,0.8408,0.8424,0.8419,0.8416,0.8404,0.8419,0.8428,0.8502,0.8559,0.8447,0.8452,0.87,0.8706,0.8712,0.8807,0,0,0,0,0,0,0.8328,0.8342,0.8381,0.8387,0.8398,0.8496,0.8415,0.8411,0.8432,0.8424,0.8437,0.8435,0.8417,0.8495,0.8507,0.8564,0.8456,0.8695,0.8702,0.871,0.8799,0.8816,0.883,0,0,0,0,0,0.8324,0.8407,0.8383,0.8394,0.8445,0.8499,0.8506,0.8482,0.8437,0.8476,0.8473,0.8435,0.855,0.8503,0.8516,0.8576,0.8691,0.87,0.8709,0.8792,0.8812,0.883,0,0,0,0,0,0,0.8409,0.8407,0.8381,0.8467,0.8484,0.8486,0.8535,0.8504,0.8534,0.8526,0.8495,0.8499,0.858,0.8585,0.8532,0.8677,0.8613,0.8625,0.8672,0.8691,0.8707,0.8705,0.846,0,0,0,0,0,0.8437,0.848,0.8476,0.8553,0.8563,0.8548,0.857,0.855,0.8567,0.8574,0.8576,0.8595,0.8636,0.8663,0.87,0.8798,0.8801,0.8845,0.8861,0.8874,0.8886,0.894,0.8961,0.8743,0.8743,0.8743,0,0,0.8497,0.8501,0.853,0.857,0.8581,0.8628,0.8554,0.8606,0.8641,0.8582,0.8653,0.8655,0.8674,0.8762,0.88,0.8768,0.8946,0.8885,0.8896,0.89,0.8952,0.8972,0.8991,0.8749,0.8748,0.8747,0,0,0.8631,0.8637,0.8703,0.8715,0.8731,0.8721,0.8737,0.8744,0.8743,0.8813,0.8771,0.8812,0.8882,0.8898,0.8915,0.9056,0.9022,0.9068,0.9151,0.9204,0.9222,0.9237,0.929,0.9308,0.9079,0.908,0.908,0,0.8704,0.8771,0.8741,0.8797,0.8817,0.8764,0.8831,0.8845,0.8873,0.8889,0.8852,0.8939,0.8948,0.904,0.9074,0.9089,0.9108,0.9068,0.9221,0.9236,0.925,0.93,0.9319,0.9085,0.9085,0.9084,0.9083,0,0.8861,0.8909,0.896,0.8988,0.9013,0.9075,0.9056,0.9085,0.9063,0.9057,0.913,0.9139,0.9178,0.9197,0.9176,0.9287,0.9266,0.9226,0.9161,0.9277,0.9323,0.9342,0.9093,0.9091,0.909,0.9088,0,0,0.9051,0.9061,0.9081,0.9094,0.9108,0.9145,0.9205,0.9241,0.9269,0.9289,0.9341,0.9401,0.9364,0.9384,0.9364,0.941,0.9524,0.9364,0.9364,0.9396,0.9649,0.9682,0.9705,0.9501,0.9504,0.9507,0.9649,0,0.9185,0.9287,0.9262,0.9363,0.9408,0.9359,0.9411,0.9426,0.9422,0.9461,0.9456,0.9501,0.9447,0.9459,0.9503,0.9501,0.9575,0.949,0.9551,0.9554,0.9551,0.9728,0.9763,0.9896,0.9666,0.967,0.9672,0,0.9356,0.9383,0.9489,0.9497,0.9515,0.9563,0.9595,0.9632,0.9649,0.9643,0.9665,0.9636,0.9697,0.963,0.9715,0.9658,0.9681,0.9684,0.9689,0.9696,0.9622,0.9743,0.9938,0.9959,0.97,0.9697,0.9695,0,0.9487,0.955,0.9622,0.9634,0.9645,0.968,0.9686,0.9699,0.9724,0.9752,0.9768,0.9804,0.9824,0.9853,0.9836,0.9788,0.9925,0.9855,0.9924,0.9925,0.9957,0.9956,1.0161,0.9968,0.9967,0.9967,0.9966,0,0.9641,0.9709,0.9681,0.9726,0.9801,0.9772,0.9847,0.9848,0.986,0.9905,0.9864,0.9908,0.988,0.9923,0.9909,0.9983,0.9992,0.9991,0.9987,0.9996,0.9997,1.0013,1.0005,0.9972,0.9971,0.997,0.9969,0,0.9801,0.9785,0.9861,0.9865,0.9867,0.9923,0.9927,0.9969,0.9961,1.002,1.0032,1.0021,1.0068,1.0053,1.0104,1.0095,1.019,1.0173,1.0185,1.0181,1.0252,1.0247,1.0477,1.0507,1.0291,1.0293,1.0295,0,0.9902,0.9953,0.9962,0.9989,0.9998,1.0042,1.0066,1.004,1.0067,1.0091,1.0132,1.0175,1.0209,1.0287,1.0285,1.0325,1.031,1.0388,1.0316,1.0324,1.0315,1.0313,1.032,1.0404,1.0406,1.0408,1.041,0,1.0084,1.0074,1.011,1.0144,1.0174,1.02,1.0222,1.0246,1.0221,1.0255,1.0302,1.0328,1.038,1.0426,1.0461,1.0469,1.0437,1.0432,1.045,1.0462,1.0468,1.0469,1.0227,1.0427,1.0426,1.0424,1.0423,1.0423,1.0219,1.0263,1.0277,1.0319,1.0333,1.0355,1.0395,1.0393,1.0432,1.0472,1.0453,1.0509,1.0527,1.0571,1.0584,1.0629,1.0599,1.0625,1.0632,1.064,1.065,1.0458,1.0635,1.0634,1.0634,1.0633,1.0633,0,1.0402,1.0408,1.0447,1.0479,1.0513,1.0477,1.05,1.0531,1.058,1.0598,1.0632,1.0688,1.0732,1.0733,1.0774,1.0809,1.0796,1.0821,1.082,1.0823,1.0673,1.0654,1.0832,1.0832,1.0832,1.0832,1.0832,1.0832,1.0501,1.0573,1.0565,1.0645,1.0651,1.0705,1.0721,1.0742,1.0757,1.0821,1.0856,1.0856,1.0868,1.0909,1.0949,1.0948,1.0966,1.0998,1.0993,1.0853,1.0833,1.0815,1.0797,1.1002,1.1002,1.1139,1.1141,1.1142]},{"header":{"parameterUnit":"m.s-1","parameterCategory":1,"la1":30.2991,"la2":30.254,"lo1":-89.0895,"lo2":-89.0444,"dy":0.0017,"dx":0.0017,"nx":28,"ny":28,"refTime":"2025-11-07T03:00:00:Z","depth":0,"parameterNumber":3,"parameterNumberName":"V-component_of_WINDS"},"data":[0,0,0,0,0,0,0,0,0,0,0,0,0,0,0,0,0,0,0,0,0,0,0,0,0,0,0,0,0,0,0,0,0,0,0,0,0,0,0,0,0,0,0,0,0,0,0,0,0,0,0,0,0,0,0,0,0,0,3.4836,3.4837,0,3.4948,3.495,3.4951,3.4915,3.4912,3.491,3.4907,3.5019,3.5024,3.5029,0,0,0,0,0,0,0,0,0,0,0,0,0,3.4586,3.4591,3.4836,3.4837,3.4839,3.4948,3.495,3.4951,3.4915,3.4912,3.4909,3.4906,3.5017,3.5023,3.5029,0,0,0,0,0,0,0,0,0,0,0,0,0,3.4696,3.4592,3.4836,3.4834,3.4835,3.4948,3.495,3.4952,3.4916,3.4912,3.4908,3.4905,3.5015,3.5022,3.503,3.515,0,0,3.5054,3.5057,0,0,0,0,0,0,0,0,3.469,3.4705,3.4833,3.4834,3.4836,3.4914,3.4902,3.5018,3.4917,3.4885,3.4907,3.4903,3.4986,3.4996,3.5025,3.5155,3.516,3.5055,3.5059,3.5063,3.5065,0,0,0,0,0,0,0,3.4682,3.47,3.488,3.4835,3.4836,3.4826,3.4838,3.4924,3.4954,3.4887,3.4885,3.4899,3.4986,3.5018,3.5027,3.5162,3.5054,3.5061,3.5066,3.5069,3.5397,3.5401,0,0,0,0,0,0,3.4674,3.4694,3.4877,3.4884,3.4752,3.4834,3.4847,3.4892,3.4953,3.4959,3.4902,3.4897,3.5006,3.5018,3.5031,3.5177,3.5063,3.507,3.5074,3.5393,3.5398,3.5402,0,0,0,0,0,0,3.4669,3.4691,3.4872,3.4788,3.4811,3.4842,3.4893,3.4896,3.4928,3.4964,3.4969,3.4929,3.5004,3.502,3.5121,3.5181,3.5073,3.508,3.5388,3.5395,3.54,3.547,0,0,0,0,0,0,3.4662,3.4689,3.4736,3.479,3.4815,3.4962,3.4897,3.4901,3.4942,3.4936,3.4991,3.4996,3.5002,3.511,3.5129,3.5189,3.5087,3.5383,3.5391,3.5398,3.5462,3.5477,3.549,0,0,0,0,0,3.4653,3.475,3.4739,3.4761,3.4875,3.4965,3.498,3.4986,3.4947,3.4994,3.5017,3.4995,3.5171,3.5121,3.5142,3.5205,3.538,3.5389,3.5398,3.5456,3.5474,3.549,0,0,0,0,0,0,3.4701,3.4757,3.4745,3.4862,3.491,3.4959,3.5019,3.5005,3.5063,3.5055,3.5059,3.5072,3.5176,3.52,3.5144,3.5325,3.5269,3.5283,3.5306,3.5324,3.5338,3.533,3.5093,0,0,0,0,0,3.4726,3.4796,3.484,3.4939,3.4964,3.4987,3.5027,3.5028,3.5076,3.5095,3.5126,3.5173,3.5239,3.5282,3.5345,3.5465,3.5477,3.5519,3.5533,3.5544,3.5557,3.5623,3.5643,3.5432,3.5432,3.5432,0,0,3.4776,3.4815,3.4859,3.495,3.4987,3.5059,3.5004,3.5082,3.5135,3.5107,3.5205,3.5229,3.5282,3.5393,3.5444,3.5417,3.5617,3.5556,3.5564,3.5571,3.5634,3.5654,3.5672,3.5439,3.5437,3.5436,0,0,3.4906,3.4942,3.503,3.5068,3.5125,3.514,3.5161,3.5213,3.5229,3.5328,3.5308,3.537,3.5483,3.5522,3.5557,3.5702,3.5683,3.5721,3.5795,3.586,3.5877,3.5891,3.5944,3.5963,3.5733,3.5733,3.5734,0,3.4961,3.5071,3.5076,3.5157,3.5197,3.5176,3.5264,3.53,3.5374,3.5402,3.5371,3.5514,3.5547,3.5668,3.5704,3.5732,3.5756,3.5716,3.5874,3.5889,3.5903,3.5953,3.5973,3.5738,3.5737,3.5737,3.5736,0,3.5137,3.5213,3.5276,3.5351,3.5398,3.5481,3.5499,3.5546,3.5542,3.556,3.5661,3.5701,3.5772,3.58,3.5796,3.5921,3.5903,3.5873,3.5817,3.5927,3.5975,3.5994,3.5744,3.5743,3.5741,3.574,0,0,3.5301,3.5377,3.5401,3.5435,3.5496,3.5554,3.5637,3.5708,3.5749,3.58,3.5869,3.5966,3.5939,3.5978,3.5978,3.6035,3.6149,3.5998,3.5999,3.6026,3.629,3.6314,3.6336,3.6136,3.614,3.6143,3.6286,0,3.5437,3.5585,3.5592,3.5725,3.5796,3.5777,3.5849,3.5894,3.5913,3.5974,3.5994,3.6063,3.6021,3.6045,3.61,3.6124,3.6202,3.6113,3.6201,3.6205,3.6191,3.6361,3.6386,3.652,3.6305,3.6308,3.631,0,3.5616,3.5675,3.5817,3.5869,3.5899,3.5964,3.603,3.6089,3.6139,3.6149,3.6194,3.6186,3.627,3.621,3.6325,3.6264,3.63,3.6317,3.6322,3.6333,3.6266,3.6377,3.6562,3.6583,3.6339,3.6337,3.6335,0,3.5723,3.5838,3.5938,3.5967,3.6031,3.6077,3.6105,3.6152,3.6195,3.6252,3.6279,3.6344,3.6381,3.6431,3.6441,3.6396,3.6557,3.6497,3.6567,3.6568,3.6604,3.6602,3.6799,3.6624,3.6624,3.6623,3.6623,0,3.5876,3.5964,3.5988,3.605,3.6147,3.6154,3.625,3.6274,3.6316,3.6382,3.6367,3.6429,3.6437,3.65,3.6508,3.6604,3.6619,3.6629,3.6631,3.6632,3.6631,3.6657,3.6649,3.6629,3.6627,3.6626,3.6625,0,3.6013,3.6033,3.6141,3.6193,3.6208,3.6278,3.6321,3.638,3.6397,3.648,3.65,3.6527,3.6601,3.6615,3.6701,3.6707,3.6821,3.6812,3.6805,3.6805,3.6875,3.6869,3.7098,3.7129,3.6931,3.6933,3.6935,0,3.611,3.6178,3.6238,3.6282,3.6313,3.6383,3.6427,3.6436,3.6482,3.6545,3.6596,3.6668,3.6727,3.6846,3.6872,3.6938,3.6932,3.7007,3.6942,3.6942,3.6936,3.6932,3.694,3.7021,3.7023,3.7025,3.7026,0,3.6281,3.6288,3.6353,3.6422,3.6476,3.653,3.6581,3.6617,3.6632,3.6685,3.6761,3.6807,3.6896,3.6969,3.7035,3.7062,3.7048,3.7046,3.7066,3.707,3.7064,3.707,3.6842,3.7041,3.704,3.7039,3.7038,3.7037,3.6403,3.6463,3.6515,3.6588,3.6628,3.6676,3.6735,3.676,3.6825,3.69,3.69,3.6984,3.7032,3.712,3.7152,3.7217,3.7193,3.7221,3.7229,3.7237,3.7244,3.7052,3.7228,3.7228,3.7227,3.7227,3.7227,0,3.6575,3.6608,3.6675,3.6749,3.6806,3.6788,3.6843,3.6893,3.6967,3.7014,3.7073,3.7161,3.7232,3.7264,3.7333,3.7379,3.7374,3.7397,3.7395,3.7402,3.7261,3.7238,3.74,3.74,3.74,3.74,3.74,3.74,3.6671,3.6772,3.6785,3.6906,3.6937,3.7021,3.7055,3.7099,3.7137,3.7237,3.7297,3.7318,3.7359,3.7431,3.7494,3.7502,3.7529,3.7556,3.756,3.7429,3.7411,3.7394,3.7373,3.7561,3.7561,3.7696,3.7697,3.7698]}]]